| time (UTC) | temp F | wind direction | speed knots | gust knots | rain 1hr in | rain 24hr in | rain mn in | humidity % | barometer mb |
| 20260905214533 | 80 | 273 | 0.9 | 2.6 | 0.00 | 0.00 | 0.00 | 77 | 1044.4 |
| 20260905214030 | 80 | 273 | 0.0 | 0.9 | 0.00 | 0.00 | 0.00 | 77 | 1044.5 |
| 20260905213527 | 80 | 274 | 0.0 | 0.9 | 0.00 | 0.00 | 0.00 | 77 | 1044.5 |
| 20260905213025 | 80 | 274 | 0.9 | 0.9 | 0.00 | 0.00 | 0.00 | 76 | 1044.7 |
| 20260905212521 | 80 | 274 | 0.0 | 0.9 | 0.00 | 0.00 | 0.00 | 76 | 1044.7 |
| 20260905212017 | 80 | 273 | 0.0 | 0.9 | 0.00 | 0.00 | 0.00 | 76 | 1044.8 |
| 20260905211534 | 81 | 274 | 0.0 | 0.9 | 0.00 | 0.00 | 0.00 | 75 | 1044.7 |
| 20260905211031 | 81 | 0.0 | 0.0 | 0.00 | 0.00 | 0.00 | 74 | 1044.7 | |
| 20260905210548 | 82 | 0.0 | 0.0 | 0.00 | 0.00 | 0.00 | 73 | 1044.8 | |
| 20260905210025 | 83 | 274 | 0.0 | 0.9 | 0.00 | 0.00 | 0.00 | 72 | 1044.8 |
| 20260905205542 | 83 | 268 | 0.9 | 3.5 | 0.00 | 0.00 | 0.00 | 71 | 1044.8 |
| 20260905205018 | 84 | 269 | 0.9 | 1.7 | 0.00 | 0.00 | 0.00 | 71 | 1044.8 |
| 20260905204535 | 83 | 271 | 0.9 | 2.6 | 0.00 | 0.00 | 0.00 | 71 | 1044.8 |
| 20260905204032 | 83 | 265 | 0.9 | 3.5 | 0.00 | 0.00 | 0.00 | 71 | 1044.7 |
| 20260905203549 | 83 | 265 | 1.7 | 5.2 | 0.00 | 0.00 | 0.00 | 70 | 1044.7 |
| 20260905203026 | 83 | 261 | 1.7 | 5.2 | 0.00 | 0.00 | 0.00 | 70 | 1044.6 |
| 20260905202523 | 83 | 265 | 1.7 | 5.2 | 0.00 | 0.00 | 0.00 | 70 | 1044.6 |
| 20260905202020 | 83 | 272 | 1.7 | 3.5 | 0.00 | 0.00 | 0.00 | 70 | 1044.5 |
| 20260905201515 | 83 | 260 | 1.7 | 2.6 | 0.00 | 0.00 | 0.00 | 69 | 1044.6 |
| 20260905201053 | 84 | 282 | 0.9 | 5.2 | 0.00 | 0.00 | 0.00 | 70 | 1044.7 |
| 20260905200530 | 83 | 213 | 0.9 | 1.7 | 0.00 | 0.00 | 0.00 | 71 | 1044.7 |
| 20260905200027 | 83 | 231 | 0.9 | 1.7 | 0.00 | 0.00 | 0.00 | 69 | 1044.8 |
| 20260905195524 | 84 | 258 | 0.9 | 3.5 | 0.00 | 0.00 | 0.00 | 68 | 1044.9 |
| 20260905195022 | 84 | 280 | 0.0 | 1.7 | 0.00 | 0.00 | 0.00 | 69 | 1045.0 |
| 20260905194539 | 84 | 273 | 0.0 | 1.7 | 0.00 | 0.00 | 0.00 | 70 | 1045.0 |
| 20260905194035 | 84 | 262 | 1.7 | 5.2 | 0.00 | 0.00 | 0.00 | 70 | 1045.0 |
| 20260905193531 | 83 | 263 | 0.9 | 2.6 | 0.00 | 0.00 | 0.00 | 72 | 1045.1 |
| 20260905193028 | 83 | 268 | 0.9 | 3.5 | 0.00 | 0.00 | 0.00 | 73 | 1045.0 |
| 20260905192525 | 83 | 262 | 0.9 | 1.7 | 0.00 | 0.00 | 0.00 | 72 | 1045.2 |
| 20260905192022 | 83 | 202 | 0.9 | 2.6 | 0.00 | 0.00 | 0.00 | 72 | 1045.2 |
| 20260905191519 | 84 | 281 | 0.0 | 1.7 | 0.00 | 0.00 | 0.00 | 72 | 1045.2 |
| 20260905191015 | 84 | 267 | 0.9 | 1.7 | 0.00 | 0.00 | 0.00 | 71 | 1045.2 |
| 20260905190533 | 84 | 223 | 0.9 | 1.7 | 0.00 | 0.00 | 0.00 | 72 | 1045.2 |
| 20260905190030 | 83 | 170 | 0.9 | 2.6 | 0.00 | 0.00 | 0.00 | 74 | 1045.4 |
| 20260905185527 | 83 | 144 | 1.7 | 3.5 | 0.00 | 0.00 | 0.00 | 74 | 1045.4 |
| 20260905185044 | 82 | 162 | 0.9 | 1.7 | 0.00 | 0.00 | 0.00 | 75 | 1045.5 |
| 20260905184521 | 82 | 162 | 0.0 | 0.9 | 0.00 | 0.00 | 0.00 | 73 | 1045.3 |
| 20260905184037 | 82 | 160 | 0.0 | 0.9 | 0.00 | 0.00 | 0.00 | 74 | 1045.3 |
| 20260905183533 | 82 | 159 | 0.0 | 0.9 | 0.00 | 0.00 | 0.00 | 74 | 1045.4 |
| 20260905183031 | 82 | 172 | 0.0 | 0.9 | 0.00 | 0.00 | 0.00 | 73 | 1045.3 |
| 20260905182527 | 82 | 240 | 1.7 | 2.6 | 0.00 | 0.00 | 0.00 | 73 | 1045.2 |
| 20260905182045 | 82 | 165 | 0.9 | 1.7 | 0.00 | 0.00 | 0.00 | 75 | 1045.2 |
| 20260905181522 | 82 | 211 | 1.7 | 2.6 | 0.00 | 0.00 | 0.00 | 77 | 1045.2 |
| 20260905181019 | 81 | 225 | 1.7 | 2.6 | 0.00 | 0.00 | 0.00 | 78 | 1045.2 |
| 20260905180535 | 80 | 231 | 1.7 | 5.2 | 0.00 | 0.00 | 0.00 | 78 | 1045.4 |
| 20260905180032 | 80 | 214 | 0.9 | 1.7 | 0.00 | 0.00 | 0.00 | 78 | 1045.4 |
| 20260905175529 | 80 | 271 | 0.9 | 6.1 | 0.00 | 0.00 | 0.00 | 77 | 1045.5 |
| 20260905175026 | 80 | 264 | 0.9 | 3.5 | 0.00 | 0.00 | 0.00 | 78 | 1045.6 |
| 20260905174523 | 80 | 140 | 0.9 | 0.9 | 0.00 | 0.00 | 0.00 | 78 | 1045.6 |
| 20260905174020 | 80 | 189 | 0.9 | 2.6 | 0.00 | 0.00 | 0.00 | 79 | 1045.7 |
| 20260905173537 | 80 | 242 | 0.0 | 1.7 | 0.00 | 0.00 | 0.00 | 79 | 1045.7 |
| 20260905173054 | 79 | 233 | 0.9 | 1.7 | 0.00 | 0.00 | 0.00 | 80 | 1045.9 |
| 20260905172531 | 79 | 195 | 0.9 | 2.6 | 0.00 | 0.00 | 0.00 | 79 | 1045.8 |
| 20260905172029 | 79 | 187 | 0.9 | 1.7 | 0.00 | 0.00 | 0.00 | 80 | 1045.8 |
| 20260905171525 | 79 | 170 | 0.0 | 1.7 | 0.00 | 0.00 | 0.00 | 80 | 1045.7 |
| 20260905171023 | 79 | 264 | 0.9 | 2.6 | 0.00 | 0.00 | 0.00 | 80 | 1045.8 |
| 20260905170520 | 79 | 229 | 0.9 | 1.7 | 0.00 | 0.00 | 0.00 | 81 | 1045.8 |
| 20260905170016 | 78 | 289 | 0.9 | 3.5 | 0.00 | 0.00 | 0.00 | 81 | 1045.7 |
| 20260905165534 | 78 | 271 | 0.9 | 3.5 | 0.00 | 0.00 | 0.00 | 81 | 1045.9 |
| 20260905165031 | 78 | 270 | 0.9 | 3.5 | 0.00 | 0.00 | 0.00 | 81 | 1045.8 |
| 20260905164528 | 78 | 273 | 0.9 | 1.7 | 0.00 | 0.00 | 0.00 | 81 | 1045.9 |
| 20260905164045 | 78 | 260 | 0.9 | 2.6 | 0.00 | 0.00 | 0.00 | 81 | 1045.9 |
| 20260905163542 | 78 | 267 | 0.0 | 1.7 | 0.00 | 0.00 | 0.00 | 82 | 1045.9 |
| 20260905163019 | 77 | 267 | 0.9 | 1.7 | 0.00 | 0.00 | 0.00 | 83 | 1045.9 |
| 20260905162535 | 77 | 267 | 0.9 | 2.6 | 0.00 | 0.00 | 0.00 | 83 | 1045.8 |
| 20260905162032 | 77 | 267 | 0.0 | 1.7 | 0.00 | 0.00 | 0.00 | 84 | 1045.9 |
| 20260905161529 | 77 | 266 | 1.7 | 3.5 | 0.00 | 0.00 | 0.00 | 84 | 1045.8 |
| 20260905161026 | 77 | 251 | 0.9 | 2.6 | 0.00 | 0.00 | 0.00 | 85 | 1045.7 |
| 20260905160524 | 76 | 174 | 0.9 | 1.7 | 0.00 | 0.00 | 0.00 | 85 | 1045.7 |
| 20260905160021 | 76 | 174 | 0.9 | 1.7 | 0.00 | 0.00 | 0.00 | 85 | 1045.7 |
| 20260905155516 | 76 | 236 | 0.9 | 2.6 | 0.00 | 0.00 | 0.00 | 85 | 1045.6 |
| 20260905155033 | 76 | 278 | 0.0 | 0.9 | 0.00 | 0.00 | 0.00 | 86 | 1045.6 |
| 20260905154531 | 76 | 279 | 0.0 | 0.9 | 0.00 | 0.00 | 0.00 | 86 | 1045.7 |
| 20260905154028 | 76 | 279 | 0.0 | 0.9 | 0.00 | 0.00 | 0.00 | 86 | 1045.6 |
| 20260905153525 | 75 | 279 | 0.0 | 0.9 | 0.00 | 0.00 | 0.00 | 86 | 1045.6 |
| 20260905153042 | 75 | 279 | 0.0 | 0.9 | 0.00 | 0.00 | 0.00 | 86 | 1045.7 |
| 20260905152519 | 75 | 276 | 0.9 | 1.7 | 0.00 | 0.00 | 0.00 | 86 | 1045.7 |
| 20260905152035 | 75 | 272 | 0.0 | 0.9 | 0.00 | 0.00 | 0.00 | 86 | 1045.8 |
| 20260905151552 | 75 | 272 | 0.0 | 0.9 | 0.00 | 0.00 | 0.00 | 86 | 1045.7 |
| 20260905151048 | 75 | 273 | 0.0 | 1.7 | 0.00 | 0.00 | 0.00 | 87 | 1045.6 |
| 20260905150525 | 75 | 272 | 0.0 | 0.9 | 0.00 | 0.00 | 0.00 | 87 | 1045.6 |
| 20260905150022 | 75 | 0.0 | 0.0 | 0.00 | 0.00 | 0.00 | 87 | 1045.4 | |
| 20260905145540 | 75 | 284 | 0.0 | 1.7 | 0.00 | 0.00 | 0.00 | 87 | 1045.3 |
| 20260905145016 | 75 | 300 | 0.0 | 1.7 | 0.00 | 0.00 | 0.00 | 87 | 1045.2 |
| 20260905144533 | 74 | 300 | 0.0 | 1.7 | 0.00 | 0.00 | 0.00 | 87 | 1045.3 |
| 20260905144030 | 74 | 300 | 0.0 | 0.9 | 0.00 | 0.00 | 0.00 | 88 | 1045.3 |
| 20260905143527 | 74 | 300 | 0.0 | 1.7 | 0.00 | 0.00 | 0.00 | 88 | 1045.3 |
| 20260905143024 | 74 | 300 | 0.0 | 1.7 | 0.00 | 0.00 | 0.00 | 88 | 1045.2 |
| 20260905142541 | 74 | 0.0 | 0.0 | 0.00 | 0.00 | 0.00 | 89 | 1045.3 | |
| 20260905142017 | 74 | 0.0 | 0.0 | 0.00 | 0.00 | 0.00 | 89 | 1045.2 | |
| 20260905141533 | 74 | 0.0 | 0.0 | 0.00 | 0.00 | 0.00 | 89 | 1045.2 | |
| 20260905141031 | 74 | 300 | 0.0 | 0.9 | 0.00 | 0.00 | 0.00 | 90 | 1044.9 |
| 20260905140527 | 74 | 0.0 | 0.0 | 0.00 | 0.00 | 0.00 | 90 | 1044.8 | |
| 20260905140026 | 73 | 0.0 | 0.0 | 0.00 | 0.00 | 0.00 | 90 | 1044.9 | |
| 20260905135522 | 73 | 300 | 0.0 | 1.7 | 0.00 | 0.00 | 0.00 | 90 | 1044.8 |
| 20260905135019 | 73 | 300 | 0.0 | 1.7 | 0.00 | 0.00 | 0.00 | 90 | 1044.8 |
| 20260905134536 | 73 | 0.0 | 0.0 | 0.00 | 0.00 | 0.00 | 91 | 1044.8 | |
| 20260905134032 | 73 | 0.0 | 0.0 | 0.00 | 0.00 | 0.00 | 91 | 1044.6 | |
| 20260905133530 | 73 | 0.0 | 0.0 | 0.00 | 0.00 | 0.00 | 91 | 1044.6 | |
| 20260905133047 | 73 | 0.0 | 0.0 | 0.00 | 0.00 | 0.00 | 91 | 1044.4 | |
| 20260905132625 | 73 | 0.0 | 0.0 | 0.00 | 0.00 | 0.00 | 91 | 1044.2 | |
| 20260905132021 | 72 | 0.0 | 0.0 | 0.00 | 0.00 | 0.00 | 91 | 1044.2 | |
| 20260905131538 | 72 | 0.0 | 0.0 | 0.00 | 0.00 | 0.00 | 91 | 1044.0 | |
| 20260905131034 | 72 | 0.0 | 0.0 | 0.00 | 0.00 | 0.00 | 91 | 1043.9 | |
| 20260905130532 | 72 | 0.0 | 0.0 | 0.00 | 0.00 | 0.00 | 91 | 1043.8 | |
| 20260905130029 | 72 | 0.0 | 0.0 | 0.00 | 0.00 | 0.00 | 91 | 1043.9 | |
| 20260905125526 | 71 | 0.0 | 0.0 | 0.00 | 0.00 | 0.00 | 91 | 1043.9 | |
| 20260905125024 | 71 | 0.0 | 0.0 | 0.00 | 0.00 | 0.00 | 91 | 1044.0 | |
| 20260905124521 | 71 | 0.0 | 0.0 | 0.00 | 0.00 | 0.00 | 91 | 1044.1 | |
| 20260905124018 | 71 | 0.0 | 0.0 | 0.00 | 0.00 | 0.00 | 91 | 1044.1 | |
| 20260905123534 | 71 | 0.0 | 0.0 | 0.00 | 0.00 | 0.00 | 91 | 1044.0 | |
| 20260905123052 | 71 | 0.0 | 0.0 | 0.00 | 0.00 | 0.00 | 91 | 1043.9 | |
| 20260905122528 | 71 | 0.0 | 0.0 | 0.00 | 0.00 | 0.00 | 91 | 1043.9 | |
| 20260905122025 | 70 | 0.0 | 0.0 | 0.00 | 0.00 | 0.00 | 91 | 1043.9 | |
| 20260905121522 | 70 | 0.0 | 0.0 | 0.00 | 0.00 | 0.00 | 91 | 1043.8 | |
| 20260905121019 | 70 | 0.0 | 0.0 | 0.00 | 0.00 | 0.00 | 91 | 1043.9 | |
| 20260905120535 | 70 | 0.0 | 0.0 | 0.00 | 0.00 | 0.00 | 91 | 1043.9 | |
| 20260905120032 | 70 | 0.0 | 0.0 | 0.00 | 0.00 | 0.00 | 91 | 1043.9 | |
| 20260905115529 | 70 | 0.0 | 0.0 | 0.00 | 0.00 | 0.00 | 91 | 1043.8 | |
| 20260905115027 | 70 | 0.0 | 0.0 | 0.00 | 0.03 | 0.00 | 91 | 1043.6 | |
| 20260905114524 | 70 | 0.0 | 0.0 | 0.00 | 0.03 | 0.00 | 91 | 1043.7 | |
| 20260905114021 | 69 | 0.0 | 0.0 | 0.00 | 0.03 | 0.00 | 91 | 1043.6 | |
| 20260905113517 | 69 | 300 | 0.0 | 0.9 | 0.00 | 0.03 | 0.00 | 91 | 1043.6 |
| 20260905113033 | 69 | 0.0 | 0.0 | 0.00 | 0.03 | 0.00 | 91 | 1043.5 | |
| 20260905112531 | 69 | 0.0 | 0.0 | 0.00 | 0.03 | 0.00 | 91 | 1043.4 | |
| 20260905112028 | 69 | 0.0 | 0.0 | 0.00 | 0.03 | 0.00 | 91 | 1043.4 | |
| 20260905111525 | 69 | 0.0 | 0.0 | 0.00 | 0.03 | 0.00 | 91 | 1043.4 | |
| 20260905111022 | 69 | 0.0 | 0.0 | 0.00 | 0.03 | 0.00 | 90 | 1043.4 | |
| 20260905110519 | 69 | 0.0 | 0.0 | 0.00 | 0.03 | 0.00 | 90 | 1043.6 | |
| 20260905110035 | 69 | 0.0 | 0.0 | 0.00 | 0.03 | 0.00 | 90 | 1043.5 | |
| 20260905105532 | 69 | 0.0 | 0.0 | 0.00 | 0.03 | 0.00 | 90 | 1043.1 | |
| 20260905105029 | 69 | 0.0 | 0.0 | 0.00 | 0.03 | 0.00 | 90 | 1042.9 | |
| 20260905104527 | 69 | 0.0 | 0.0 | 0.00 | 0.03 | 0.00 | 90 | 1042.8 | |
| 20260905104024 | 70 | 0.0 | 0.0 | 0.00 | 0.03 | 0.00 | 90 | 1042.7 | |
| 20260905103521 | 70 | 0.0 | 0.0 | 0.00 | 0.03 | 0.00 | 90 | 1042.7 | |
| 20260905103017 | 70 | 0.0 | 0.0 | 0.00 | 0.03 | 0.00 | 90 | 1042.8 | |
| 20260905102534 | 70 | 0.0 | 0.0 | 0.00 | 0.03 | 0.00 | 90 | 1042.8 | |
| 20260905102031 | 71 | 0.0 | 0.0 | 0.00 | 0.03 | 0.00 | 90 | 1042.8 | |
| 20260905101528 | 71 | 0.0 | 0.0 | 0.00 | 0.03 | 0.00 | 91 | 1042.7 | |
| 20260905101106 | 71 | 0.0 | 0.0 | 0.00 | 0.03 | 0.00 | 91 | 1042.6 | |
| 20260905100523 | 71 | 0.0 | 0.0 | 0.00 | 0.03 | 0.00 | 91 | 1042.4 | |
| 20260905100020 | 71 | 0.0 | 0.0 | 0.00 | 0.03 | 0.00 | 90 | 1042.4 | |
| 20260905095516 | 72 | 0.0 | 0.0 | 0.00 | 0.03 | 0.00 | 90 | 1042.5 | |
| 20260905095033 | 72 | 0.0 | 0.0 | 0.00 | 0.03 | 0.00 | 90 | 1042.4 | |
| 20260905094531 | 72 | 0.0 | 0.0 | 0.00 | 0.03 | 0.00 | 90 | 1042.5 | |
| 20260905094028 | 72 | 0.0 | 0.0 | 0.00 | 0.03 | 0.00 | 90 | 1042.6 | |
| 20260905093525 | 72 | 0.0 | 0.0 | 0.00 | 0.03 | 0.00 | 91 | 1042.6 | |
| 20260905093042 | 72 | 0.0 | 0.0 | 0.00 | 0.03 | 0.00 | 91 | 1042.6 | |
| 20260905092519 | 72 | 0.0 | 0.0 | 0.00 | 0.03 | 0.00 | 91 | 1042.6 | |
| 20260905092035 | 72 | 0.0 | 0.0 | 0.00 | 0.03 | 0.00 | 91 | 1042.6 | |
| 20260905091532 | 72 | 0.0 | 0.0 | 0.00 | 0.03 | 0.00 | 91 | 1042.7 | |
| 20260905091029 | 72 | 0.0 | 0.0 | 0.00 | 0.03 | 0.00 | 91 | 1042.6 | |
| 20260905090527 | 72 | 0.0 | 0.0 | 0.00 | 0.03 | 0.00 | 91 | 1042.6 | |
| 20260905090024 | 72 | 0.0 | 0.0 | 0.00 | 0.03 | 0.00 | 91 | 1042.6 | |
| 20260905085521 | 72 | 0.0 | 0.0 | 0.00 | 0.03 | 0.00 | 91 | 1042.6 | |
| 20260905085017 | 72 | 0.0 | 0.0 | 0.00 | 0.03 | 0.00 | 91 | 1042.6 | |
| 20260905084534 | 73 | 0.0 | 0.0 | 0.00 | 0.03 | 0.00 | 91 | 1042.7 | |
| 20260905084051 | 73 | 0.0 | 0.0 | 0.00 | 0.03 | 0.00 | 91 | 1042.5 | |
| 20260905083528 | 73 | 0.0 | 0.0 | 0.00 | 0.03 | 0.00 | 91 | 1042.5 | |
| 20260905083045 | 73 | 0.0 | 0.0 | 0.00 | 0.03 | 0.00 | 91 | 1042.4 | |
| 20260905082522 | 73 | 0.0 | 0.0 | 0.00 | 0.03 | 0.00 | 91 | 1042.5 | |
| 20260905082018 | 73 | 0.0 | 0.0 | 0.00 | 0.03 | 0.00 | 91 | 1042.4 | |
| 20260905081534 | 73 | 0.0 | 0.0 | 0.00 | 0.03 | 0.00 | 91 | 1042.5 | |
| 20260905081031 | 73 | 0.0 | 0.0 | 0.00 | 0.03 | 0.00 | 91 | 1042.4 | |
| 20260905080529 | 73 | 0.0 | 0.0 | 0.00 | 0.03 | 0.00 | 91 | 1042.6 | |
| 20260905080026 | 73 | 0.0 | 0.0 | 0.00 | 0.03 | 0.00 | 91 | 1042.6 | |
| 20260905075523 | 73 | 0.0 | 0.0 | 0.00 | 0.03 | 0.00 | 91 | 1042.5 | |
| 20260905075021 | 73 | 0.0 | 0.0 | 0.00 | 0.03 | 0.00 | 91 | 1042.6 | |
| 20260905074518 | 73 | 0.0 | 0.0 | 0.00 | 0.03 | 0.00 | 90 | 1042.5 | |
| 20260905074035 | 73 | 0.0 | 0.0 | 0.00 | 0.03 | 0.00 | 90 | 1042.7 | |
| 20260905073532 | 73 | 0.0 | 0.0 | 0.00 | 0.03 | 0.00 | 90 | 1042.5 | |
| 20260905073029 | 73 | 0.0 | 0.0 | 0.00 | 0.03 | 0.00 | 91 | 1042.5 | |
| 20260905072526 | 73 | 0.0 | 0.0 | 0.00 | 0.03 | 0.00 | 91 | 1042.4 | |
| 20260905072023 | 73 | 0.0 | 0.0 | 0.00 | 0.03 | 0.00 | 91 | 1042.4 | |
| 20260905071540 | 73 | 0.0 | 0.0 | 0.00 | 0.03 | 0.00 | 90 | 1042.4 | |
| 20260905071036 | 73 | 0.0 | 0.0 | 0.00 | 0.03 | 0.00 | 90 | 1042.3 | |
| 20260905070533 | 73 | 0.0 | 0.0 | 0.00 | 0.03 | 0.00 | 90 | 1042.5 | |
| 20260905070030 | 73 | 0.0 | 0.0 | 0.00 | 0.03 | 0.00 | 90 | 1042.3 | |
| 20260905065527 | 73 | 0.0 | 0.0 | 0.00 | 0.03 | 0.00 | 90 | 1042.4 | |
| 20260905065025 | 73 | 0.0 | 0.0 | 0.00 | 0.03 | 0.00 | 90 | 1042.4 | |
| 20260905064522 | 73 | 0.0 | 0.0 | 0.00 | 0.03 | 0.00 | 90 | 1042.3 | |
| 20260905064018 | 73 | 0.0 | 0.0 | 0.00 | 0.03 | 0.00 | 90 | 1042.3 | |
| 20260905063534 | 73 | 0.0 | 0.0 | 0.00 | 0.03 | 0.00 | 90 | 1042.1 | |
| 20260905063032 | 73 | 0.0 | 0.0 | 0.00 | 0.03 | 0.00 | 90 | 1042.1 | |
| 20260905062528 | 73 | 0.0 | 0.0 | 0.00 | 0.03 | 0.00 | 90 | 1042.2 | |
| 20260905062026 | 73 | 0.0 | 0.0 | 0.00 | 0.03 | 0.00 | 90 | 1042.3 | |
| 20260905061523 | 73 | 0.0 | 0.0 | 0.00 | 0.03 | 0.00 | 90 | 1042.3 | |
| 20260905061040 | 73 | 0.0 | 0.0 | 0.00 | 0.03 | 0.00 | 90 | 1042.3 | |
| 20260905060517 | 73 | 0.0 | 0.0 | 0.00 | 0.03 | 0.00 | 90 | 1042.4 | |
| 20260905060033 | 74 | 0.0 | 0.0 | 0.00 | 0.03 | 0.00 | 90 | 1042.5 | |
| 20260905055531 | 74 | 0.0 | 0.0 | 0.00 | 0.03 | 0.00 | 90 | 1042.4 | |
| 20260905055049 | 73 | 0.0 | 0.0 | 0.00 | 0.03 | 0.00 | 90 | 1042.4 | |
| 20260905054605 | 73 | 0.0 | 0.0 | 0.00 | 0.03 | 0.00 | 90 | 1042.3 | |
| 20260905054022 | 73 | 0.0 | 0.0 | 0.00 | 0.03 | 0.00 | 90 | 1042.3 | |
| 20260905053519 | 73 | 0.0 | 0.0 | 0.00 | 0.03 | 0.00 | 90 | 1042.2 | |
| 20260905053035 | 74 | 0.0 | 0.0 | 0.00 | 0.03 | 0.00 | 90 | 1042.2 | |
| 20260905052532 | 74 | 0.0 | 0.0 | 0.00 | 0.03 | 0.00 | 90 | 1042.2 | |
| 20260905052029 | 74 | 0.0 | 0.0 | 0.00 | 0.03 | 0.00 | 90 | 1042.1 | |
| 20260905051546 | 74 | 0.0 | 0.0 | 0.00 | 0.03 | 0.00 | 90 | 1042.0 | |
| 20260905051023 | 74 | 0.0 | 0.0 | 0.00 | 0.03 | 0.00 | 89 | 1041.9 | |
| 20260905050520 | 74 | 0.0 | 0.0 | 0.00 | 0.03 | 0.00 | 89 | 1042.0 | |
| 20260905050016 | 74 | 0.0 | 0.0 | 0.00 | 0.03 | 0.03 | 89 | 1042.0 | |
| 20260905045533 | 74 | 0.0 | 0.0 | 0.00 | 0.03 | 0.03 | 89 | 1041.9 | |
| 20260905045030 | 74 | 0.0 | 0.0 | 0.00 | 0.03 | 0.03 | 89 | 1041.9 | |
| 20260905044527 | 74 | 0.0 | 0.0 | 0.00 | 0.03 | 0.03 | 89 | 1041.8 | |
| 20260905044024 | 74 | 0.0 | 0.0 | 0.00 | 0.03 | 0.03 | 89 | 1041.8 | |
| 20260905043521 | 74 | 0.0 | 0.0 | 0.00 | 0.03 | 0.03 | 89 | 1041.7 | |
| 20260905043018 | 74 | 0.0 | 0.0 | 0.00 | 0.03 | 0.03 | 89 | 1041.7 | |
| 20260905042535 | 75 | 0.0 | 0.0 | 0.00 | 0.03 | 0.03 | 89 | 1041.5 | |
| 20260905042032 | 75 | 0.0 | 0.0 | 0.00 | 0.03 | 0.03 | 89 | 1041.5 | |
| 20260905041530 | 75 | 0.0 | 0.0 | 0.00 | 0.03 | 0.03 | 89 | 1041.5 | |
| 20260905041046 | 74 | 0.0 | 0.0 | 0.00 | 0.03 | 0.03 | 89 | 1041.4 | |
| 20260905040523 | 74 | 0.0 | 0.0 | 0.00 | 0.03 | 0.03 | 89 | 1041.6 | |
| 20260905040100 | 74 | 0.0 | 0.0 | 0.00 | 0.03 | 0.03 | 89 | 1041.8 | |
| 20260905035518 | 74 | 0.0 | 0.0 | 0.00 | 0.03 | 0.03 | 89 | 1041.8 | |
| 20260905035034 | 74 | 0.0 | 0.0 | 0.00 | 0.03 | 0.03 | 89 | 1041.7 | |
| 20260905034651 | 74 | 0.0 | 0.0 | 0.00 | 0.03 | 0.03 | 89 | 1041.8 | |
| 20260905034128 | 75 | 0.0 | 0.0 | 0.00 | 0.03 | 0.03 | 89 | 1042.1 | |
| 20260905033545 | 75 | 0.0 | 0.0 | 0.00 | 0.03 | 0.03 | 89 | 1042.0 | |
| 20260905033021 | 75 | 0.0 | 0.0 | 0.00 | 0.03 | 0.03 | 89 | 1041.9 | |
| 20260905032538 | 75 | 0.0 | 0.0 | 0.00 | 0.03 | 0.03 | 89 | 1041.8 | |
| 20260905032035 | 75 | 0.0 | 0.0 | 0.00 | 0.03 | 0.03 | 89 | 1041.7 | |
| 20260905031532 | 75 | 0.0 | 0.0 | 0.00 | 0.03 | 0.03 | 89 | 1042.0 | |
| 20260905031050 | 75 | 0.0 | 0.0 | 0.00 | 0.03 | 0.03 | 88 | 1041.9 | |
| 20260905030547 | 75 | 0.0 | 0.0 | 0.00 | 0.03 | 0.03 | 88 | 1041.9 | |
| 20260905030044 | 75 | 0.0 | 0.0 | 0.00 | 0.03 | 0.03 | 88 | 1041.8 | |
| 20260905025521 | 75 | 0.0 | 0.0 | 0.00 | 0.03 | 0.03 | 88 | 1041.8 | |
| 20260905025018 | 75 | 0.0 | 0.0 | 0.00 | 0.03 | 0.03 | 89 | 1041.7 | |
| 20260905024534 | 75 | 0.0 | 0.0 | 0.00 | 0.03 | 0.03 | 88 | 1041.7 | |
| 20260905024031 | 75 | 0.0 | 0.0 | 0.00 | 0.03 | 0.03 | 88 | 1041.5 | |
| 20260905023528 | 75 | 0.0 | 0.0 | 0.00 | 0.03 | 0.03 | 88 | 1041.6 | |
| 20260905023025 | 75 | 0.0 | 0.0 | 0.00 | 0.03 | 0.03 | 87 | 1041.6 | |
| 20260905022523 | 75 | 0.0 | 0.0 | 0.00 | 0.03 | 0.03 | 87 | 1041.6 | |
| 20260905022020 | 76 | 0.0 | 0.0 | 0.00 | 0.03 | 0.03 | 87 | 1041.4 | |
| 20260905021536 | 76 | 0.0 | 0.0 | 0.00 | 0.03 | 0.03 | 87 | 1041.4 | |
| 20260905021213 | 76 | 0.0 | 0.0 | 0.00 | 0.03 | 0.03 | 86 | 1041.4 | |
| 20260905020530 | 76 | 0.0 | 0.0 | 0.00 | 0.03 | 0.03 | 86 | 1041.5 | |
| 20260905020027 | 76 | 0.0 | 0.0 | 0.00 | 0.03 | 0.03 | 86 | 1041.4 | |
| 20260905015524 | 76 | 0.0 | 0.0 | 0.00 | 0.03 | 0.03 | 85 | 1041.4 | |
| 20260905015021 | 76 | 0.0 | 0.0 | 0.00 | 0.03 | 0.03 | 85 | 1041.4 | |
| 20260905014538 | 77 | 0.0 | 0.0 | 0.00 | 0.03 | 0.03 | 85 | 1041.3 | |
| 20260905014034 | 77 | 0.0 | 0.0 | 0.00 | 0.03 | 0.03 | 85 | 1041.2 | |
| 20260905013531 | 77 | 0.0 | 0.0 | 0.00 | 0.03 | 0.03 | 85 | 1041.2 | |
| 20260905013029 | 77 | 0.0 | 0.0 | 0.00 | 0.03 | 0.03 | 84 | 1041.1 | |
| 20260905012525 | 78 | 0.0 | 0.0 | 0.00 | 0.03 | 0.03 | 84 | 1041.2 | |
| 20260905012023 | 78 | 0.0 | 0.0 | 0.00 | 0.03 | 0.03 | 84 | 1041.1 | |
| 20260905011520 | 79 | 0.0 | 0.0 | 0.00 | 0.03 | 0.03 | 84 | 1041.0 | |
| 20260905011016 | 79 | 0.0 | 0.0 | 0.00 | 0.03 | 0.03 | 82 | 1040.9 | |
| 20260905010533 | 79 | 0.0 | 0.0 | 0.00 | 0.03 | 0.03 | 82 | 1040.9 | |
| 20260905010030 | 80 | 0.0 | 0.0 | 0.00 | 0.03 | 0.03 | 81 | 1040.9 | |
| 20260905005528 | 80 | 0.0 | 0.0 | 0.00 | 0.03 | 0.03 | 80 | 1040.9 | |
| 20260905005025 | 81 | 0.0 | 0.0 | 0.00 | 0.03 | 0.03 | 80 | 1040.8 | |
| 20260905004522 | 81 | 300 | 0.0 | 0.9 | 0.00 | 0.03 | 0.03 | 79 | 1040.8 |
| 20260905004019 | 82 | 0.0 | 0.0 | 0.00 | 0.03 | 0.03 | 78 | 1040.8 | |
| 20260905003535 | 82 | 0.0 | 0.0 | 0.00 | 0.03 | 0.03 | 78 | 1040.6 | |
| 20260905003032 | 82 | 300 | 0.0 | 0.9 | 0.00 | 0.03 | 0.03 | 78 | 1040.6 |
| 20260905002529 | 82 | 0.0 | 0.0 | 0.00 | 0.03 | 0.03 | 77 | 1040.5 | |
| 20260905002046 | 83 | 0.0 | 0.0 | 0.00 | 0.03 | 0.03 | 77 | 1040.5 | |
| 20260905001543 | 83 | 0.0 | 0.0 | 0.00 | 0.03 | 0.03 | 77 | 1040.5 | |
| 20260905001020 | 83 | 0.0 | 0.0 | 0.00 | 0.03 | 0.03 | 76 | 1040.4 | |
| 20260905000537 | 83 | 301 | 0.0 | 0.9 | 0.00 | 0.03 | 0.03 | 76 | 1040.4 |
| 20260905000033 | 84 | 0.0 | 0.0 | 0.00 | 0.03 | 0.03 | 75 | 1040.2 | |
| 20260904235530 | 84 | 300 | 0.0 | 0.9 | 0.00 | 0.03 | 0.03 | 75 | 1040.3 |
| 20260904235027 | 84 | 301 | 0.0 | 0.9 | 0.00 | 0.03 | 0.03 | 75 | 1040.4 |
| 20260904234524 | 84 | 301 | 0.0 | 0.9 | 0.00 | 0.03 | 0.03 | 75 | 1040.4 |
| 20260904234022 | 84 | 313 | 0.0 | 0.9 | 0.00 | 0.03 | 0.03 | 75 | 1040.5 |
| 20260904233519 | 84 | 2 | 0.0 | 0.9 | 0.00 | 0.03 | 0.03 | 74 | 1040.5 |
| 20260904233035 | 85 | 1 | 0.9 | 3.5 | 0.00 | 0.03 | 0.03 | 74 | 1040.4 |
| 20260904232552 | 84 | 164 | 0.0 | 1.7 | 0.00 | 0.03 | 0.03 | 74 | 1040.5 |
| 20260904232028 | 85 | 164 | 0.0 | 0.9 | 0.00 | 0.03 | 0.03 | 74 | 1040.5 |
| 20260904231526 | 85 | 164 | 0.0 | 0.9 | 0.00 | 0.03 | 0.03 | 74 | 1040.6 |
| 20260904231022 | 85 | 164 | 0.0 | 0.9 | 0.00 | 0.03 | 0.03 | 74 | 1040.5 |
| 20260904230520 | 84 | 164 | 0.0 | 0.9 | 0.00 | 0.03 | 0.03 | 73 | 1040.5 |
| 20260904230016 | 85 | 160 | 0.9 | 2.6 | 0.00 | 0.03 | 0.03 | 74 | 1040.7 |
| 20260904225533 | 85 | 136 | 0.9 | 2.6 | 0.00 | 0.03 | 0.03 | 74 | 1040.6 |
| 20260904225030 | 85 | 136 | 0.0 | 0.9 | 0.00 | 0.03 | 0.03 | 74 | 1040.6 |
| 20260904224528 | 85 | 136 | 0.0 | 0.9 | 0.00 | 0.03 | 0.03 | 73 | 1040.6 |
| 20260904224024 | 85 | 136 | 0.0 | 1.7 | 0.00 | 0.03 | 0.03 | 73 | 1040.6 |
| 20260904223522 | 85 | 136 | 0.0 | 1.7 | 0.00 | 0.03 | 0.03 | 73 | 1040.6 |
| 20260904223019 | 85 | 136 | 0.9 | 1.7 | 0.00 | 0.03 | 0.03 | 73 | 1040.7 |
| 20260904222534 | 86 | 136 | 0.0 | 0.9 | 0.00 | 0.03 | 0.03 | 72 | 1040.7 |
| 20260904222031 | 86 | 136 | 0.0 | 0.9 | 0.00 | 0.03 | 0.03 | 72 | 1040.7 |
| 20260904221549 | 86 | 136 | 0.0 | 0.9 | 0.00 | 0.03 | 0.03 | 72 | 1040.6 |
| 20260904221026 | 86 | 131 | 0.0 | 0.9 | 0.00 | 0.03 | 0.03 | 72 | 1040.4 |
| 20260904220523 | 86 | 130 | 0.0 | 1.7 | 0.00 | 0.03 | 0.03 | 72 | 1040.2 |
| 20260904220020 | 86 | 126 | 0.9 | 1.7 | 0.00 | 0.03 | 0.03 | 71 | 1040.1 |
| 20260904215517 | 86 | 124 | 0.9 | 1.7 | 0.00 | 0.03 | 0.03 | 71 | 1040.1 |
| 20260904215034 | 87 | 124 | 0.9 | 0.9 | 0.00 | 0.03 | 0.03 | 71 | 1040.1 |